Location: Igon
(43.1667°N, 0.2333°W)
Time: 09:57:54
(UTC+00:00)

RESURS DK-1 - Pass Details

Date: 29 November 2020
Orbit: 557 x 560 km, 69.9° (Epoch: 23 January)

Event Time Altitude Azimuth Distance (km) Brightness Sun altitude
Exits shadow 04:27:12 11° 161° (SSE) 1,755 5.1 -29.3°
Maximum altitude 04:30:22 26° 107° (ESE) 1,128 4.5 -28.7°
Drops below altitude 10° 04:33:49 10° 50° (NE) 1,856 5.5 -28.1°
Sets 04:36:17 0° 38° (NE) 2,757 6.3 -27.6°
